When you browse on this site, cookies collect data to enhance your experience and personalize the content and advertising you see.
Visit our Privacy Policy to learn more. By continuing to use the site, you agree to this use of cookies and data.
  • în România
  • Lista ţărilor
  • Pe 7 zile
  • Temperatura apei
  • Hartă satelitară
  • Meteo pe hartă
  • Widget-uri
  • user-avatar
    Intrare

    Meteo pe oră la Levokumka

    Astăzi, 25 Aprilie, Joi

    Timp Temperatura Precipitaţii Vânt Presiune Umiditate
    00:00 +10°C° 0.1 mm 4 m/s 744 mmHg 67%
    01:00 +10°C° 0.2 mm 4 m/s 744 mmHg 67%
    02:00 +10°C° 0.2 mm 4 m/s 744 mmHg 67%
    03:00 +10°C° 0 mm 4 m/s 744 mmHg 65%
    04:00 +9°C° 0 mm 3 m/s 744 mmHg 66%
    05:00 +9°C° 0 mm 3 m/s 744 mmHg 67%
    06:00 +9°C° 0 mm 3 m/s 744 mmHg 68%
    07:00 +11°C° 0 mm 4 m/s 744 mmHg 62%
    08:00 +14°C° 0 mm 4 m/s 744 mmHg 57%
    09:00 +17°C° 0 mm 4 m/s 743 mmHg 52%
    10:00 +18°C° 0 mm 3 m/s 743 mmHg 48%
    11:00 +19°C° 0 mm 3 m/s 743 mmHg 44%
    12:00 +19°C° 0 mm 2 m/s 743 mmHg 41%
    13:00 +20°C° 0 mm 2 m/s 743 mmHg 41%
    14:00 +20°C° 0 mm 2 m/s 743 mmHg 42%
    15:00 +20°C° 0 mm 2 m/s 742 mmHg 42%
    16:00 +19°C° 0 mm 2 m/s 742 mmHg 46%
    17:00 +20°C° 0 mm 1 m/s 742 mmHg 51%
    18:00 +19°C° 0 mm 1 m/s 742 mmHg 55%
    19:00 +18°C° 0 mm 1 m/s 742 mmHg 58%
    20:00 +15°C° 0 mm 1 m/s 743 mmHg 61%
    21:00 +14°C° 0 mm 1 m/s 743 mmHg 64%
    22:00 +13°C° 0 mm 1 m/s 743 mmHg 66%
    23:00 +13°C° 0 mm 1 m/s 743 mmHg 67%

    Mâine, 26 Aprilie, Vineri

    Timp Temperatura Precipitaţii Vânt Presiune Umiditate
    00:00 +12°C° 0 mm 1 m/s 742 mmHg 69%
    01:00 +12°C° 0 mm 1 m/s 742 mmHg 69%
    02:00 +12°C° 0 mm 1 m/s 742 mmHg 69%
    03:00 +11°C° 0 mm 1 m/s 742 mmHg 69%
    04:00 +11°C° 0 mm 1 m/s 742 mmHg 69%
    05:00 +11°C° 0 mm 1 m/s 742 mmHg 70%
    06:00 +11°C° 0 mm 1 m/s 742 mmHg 70%
    07:00 +13°C° 0 mm 1 m/s 741 mmHg 64%
    08:00 +16°C° 0 mm 1 m/s 741 mmHg 58%
    09:00 +19°C° 0 mm 1 m/s 741 mmHg 53%
    10:00 +19°C° 0 mm 2 m/s 741 mmHg 49%
    11:00 +20°C° 0 mm 2 m/s 740 mmHg 46%
    12:00 +21°C° 0 mm 3 m/s 740 mmHg 43%
    13:00 +21°C° 0 mm 3 m/s 740 mmHg 42%
    14:00 +22°C° 0 mm 4 m/s 740 mmHg 41%
    15:00 +22°C° 0 mm 4 m/s 739 mmHg 41%
    16:00 +21°C° 0 mm 3 m/s 739 mmHg 46%
    17:00 +20°C° 0 mm 3 m/s 739 mmHg 51%
    18:00 +19°C° 0 mm 3 m/s 739 mmHg 56%
    19:00 +18°C° 0 mm 3 m/s 739 mmHg 59%
    20:00 +16°C° 0 mm 2 m/s 739 mmHg 62%
    21:00 +15°C° 0 mm 2 m/s 739 mmHg 66%
    22:00 +14°C° 0 mm 2 m/s 739 mmHg 67%
    23:00 +13°C° 0 mm 2 m/s 739 mmHg 68%

    Poimâine, 27 Aprilie, Sâmbătă

    Timp Temperatura Precipitaţii Vânt Presiune Umiditate
    00:00 +13°C° 0 mm 1 m/s 739 mmHg 69%
    01:00 +12°C° 0 mm 1 m/s 739 mmHg 70%
    02:00 +12°C° 0 mm 1 m/s 739 mmHg 71%
    03:00 +12°C° 0 mm 1 m/s 738 mmHg 72%
    04:00 +12°C° 0 mm 1 m/s 738 mmHg 72%
    05:00 +12°C° 0 mm 1 m/s 738 mmHg 71%
    06:00 +12°C° 0 mm 1 m/s 738 mmHg 71%
    07:00 +14°C° 0 mm 2 m/s 738 mmHg 62%
    08:00 +17°C° 0 mm 2 m/s 738 mmHg 54%
    09:00 +19°C° 0 mm 3 m/s 738 mmHg 46%
    10:00 +20°C° 0 mm 3 m/s 738 mmHg 44%
    11:00 +21°C° 0 mm 4 m/s 737 mmHg 41%
    12:00 +22°C° 0 mm 4 m/s 737 mmHg 39%
    13:00 +22°C° 0 mm 4 m/s 737 mmHg 39%
    14:00 +22°C° 0 mm 4 m/s 736 mmHg 39%
    15:00 +22°C° 0 mm 4 m/s 736 mmHg 39%
    16:00 +22°C° 0 mm 3 m/s 736 mmHg 44%
    17:00 +21°C° 0 mm 3 m/s 736 mmHg 49%
    18:00 +20°C° 0 mm 2 m/s 736 mmHg 54%
    19:00 +20°C° 0 mm 1 m/s 736 mmHg 57%
    20:00 +19°C° 0 mm 1 m/s 736 mmHg 60%
    21:00 +15°C° 0 mm 0 m/s 737 mmHg 63%
    22:00 +16°C° 0 mm 1 m/s 736 mmHg 65%
    23:00 +15°C° 0 mm 1 m/s 736 mmHg 66%

    28 Aprilie, Duminică

    Timp Temperatura Precipitaţii Vânt Presiune Umiditate
    00:00 +15°C° 0 mm 1 m/s 736 mmHg 68%
    01:00 +14°C° 0 mm 1 m/s 736 mmHg 69%
    02:00 +13°C° 0 mm 1 m/s 735 mmHg 70%
    03:00 +12°C° 0 mm 0 m/s 735 mmHg 71%
    04:00 +13°C° 0 mm 1 m/s 735 mmHg 72%
    05:00 +13°C° 0 mm 1 m/s 735 mmHg 73%
    06:00 +13°C° 0 mm 1 m/s 735 mmHg 74%
    07:00 +15°C° 0 mm 1 m/s 735 mmHg 68%
    08:00 +18°C° 0 mm 1 m/s 735 mmHg 62%
    09:00 +19°C° 0 mm 2 m/s 735 mmHg 56%
    10:00 +21°C° 0 mm 1 m/s 735 mmHg 52%
    11:00 +22°C° 0 mm 1 m/s 734 mmHg 48%
    12:00 +24°C° 0 mm 1 m/s 734 mmHg 43%
    13:00 +24°C° 0 mm 1 m/s 734 mmHg 42%
    14:00 +24°C° 0 mm 2 m/s 734 mmHg 40%
    15:00 +25°C° 0 mm 2 m/s 733 mmHg 38%
    16:00 +24°C° 0 mm 1 m/s 733 mmHg 42%
    17:00 +23°C° 0 mm 1 m/s 733 mmHg 47%
    18:00 +22°C° 0 mm 1 m/s 733 mmHg 51%
    19:00 +21°C° 0 mm 1 m/s 734 mmHg 54%
    20:00 +20°C° 0 mm 1 m/s 734 mmHg 56%
    21:00 +16°C° 0 mm 0 m/s 734 mmHg 58%
    22:00 +18°C° 0 mm 1 m/s 734 mmHg 60%
    23:00 +16°C° 0 mm 1 m/s 734 mmHg 62%

    29 Aprilie, Luni

    Timp Temperatura Precipitaţii Vânt Presiune Umiditate
    00:00 +15°C° 0 mm 1 m/s 734 mmHg 64%
    01:00 +15°C° 0 mm 1 m/s 734 mmHg 65%
    02:00 +14°C° 0 mm 1 m/s 734 mmHg 66%
    03:00 +14°C° 0 mm 2 m/s 733 mmHg 67%
    04:00 +14°C° 0 mm 2 m/s 733 mmHg 67%
    05:00 +14°C° 0 mm 2 m/s 734 mmHg 67%
    06:00 +14°C° 0 mm 2 m/s 734 mmHg 68%
    07:00 +16°C° 0 mm 1 m/s 734 mmHg 62%
    08:00 +20°C° 0 mm 1 m/s 733 mmHg 56%
    09:00 +22°C° 0 mm 1 m/s 733 mmHg 49%
    10:00 +23°C° 0 mm 1 m/s 733 mmHg 45%
    11:00 +24°C° 0 mm 1 m/s 733 mmHg 41%
    12:00 +26°C° 0 mm 1 m/s 733 mmHg 37%
    13:00 +26°C° 0 mm 1 m/s 733 mmHg 36%
    14:00 +26°C° 0 mm 2 m/s 733 mmHg 36%
    15:00 +26°C° 0 mm 2 m/s 732 mmHg 35%
    16:00 +25°C° 0 mm 2 m/s 732 mmHg 41%
    17:00 +24°C° 0 mm 2 m/s 732 mmHg 46%
    18:00 +23°C° 0 mm 2 m/s 732 mmHg 52%
    19:00 +22°C° 0.1 mm 1 m/s 733 mmHg 56%
    20:00 +21°C° 0.1 mm 1 m/s 733 mmHg 60%
    21:00 +19°C° 0.1 mm 1 m/s 733 mmHg 64%
    22:00 +16°C° 0.8 mm 0 m/s 733 mmHg 68%
    23:00 +16°C° 0.8 mm 0 m/s 733 mmHg 72%

    30 Aprilie, Marţi

    Timp Temperatura Precipitaţii Vânt Presiune Umiditate
    00:00 +15°C° 0.8 mm 0 m/s 733 mmHg 76%
    01:00 +15°C° 0.8 mm 0 m/s 733 mmHg 79%
    02:00 +14°C° 0.8 mm 0 m/s 733 mmHg 82%
    03:00 +15°C° 0.8 mm 1 m/s 733 mmHg 85%
    04:00 +14°C° 0.1 mm 0 m/s 733 mmHg 84%
    05:00 +14°C° 0.1 mm 0 m/s 733 mmHg 83%
    06:00 +14°C° 0.1 mm 0 m/s 733 mmHg 82%
    07:00 +18°C° 0 mm 1 m/s 733 mmHg 76%
    08:00 +18°C° 0 mm 2 m/s 733 mmHg 71%
    09:00 +20°C° 0 mm 2 m/s 733 mmHg 65%
    10:00 +21°C° 0.2 mm 2 m/s 733 mmHg 62%
    11:00 +23°C° 0.2 mm 2 m/s 733 mmHg 59%
    12:00 +24°C° 0.2 mm 3 m/s 732 mmHg 56%
    13:00 +24°C° 0.4 mm 3 m/s 732 mmHg 55%
    14:00 +25°C° 0.4 mm 3 m/s 732 mmHg 54%
    15:00 +25°C° 0.4 mm 3 m/s 732 mmHg 54%
    16:00 +24°C° 1.7 mm 2 m/s 732 mmHg 60%
    17:00 +23°C° 1.7 mm 2 m/s 732 mmHg 67%
    18:00 +21°C° 1.7 mm 2 m/s 732 mmHg 73%
    19:00 +20°C° 0.5 mm 1 m/s 732 mmHg 77%
    20:00 +19°C° 0.5 mm 1 m/s 732 mmHg 80%
    21:00 +18°C° 0.5 mm 1 m/s 732 mmHg 83%
    22:00 +16°C° 0 mm 2 m/s 732 mmHg 85%
    23:00 +16°C° 0 mm 2 m/s 732 mmHg 87%
    Arată mai mult